Stations météo

réclame
Mon MeteoGroup
Lorient Lan Bihoue, France (7205): Température de l'air & dewpoint: 11.12.2018 06:00:00 - 17.12.2018 06:00:00 (CET)Lorient Lan Bihoue, France (7205): Température de l'air 5cm: 11.12.2018 06:00:00 - 17.12.2018 06:00:00 (CET)Lorient Lan Bihoue, France (7205): Température de l'air -20cm: 11.12.2018 06:00:00 - 17.12.2018 06:00:00 (CET)Lorient Lan Bihoue, France (7205): Vitesse du vent & gusts: 11.12.2018 06:00:00 - 17.12.2018 06:00:00 (CET)Lorient Lan Bihoue, France (7205): Direction du vent: 11.12.2018 06:00:00 - 17.12.2018 06:00:00 (CET)Lorient Lan Bihoue, France (7205): reduced air pressure: 11.12.2018 06:00:00 - 17.12.2018 06:00:00 (CET)Lorient Lan Bihoue, France (7205): visibility: 11.12.2018 06:00:00 - 17.12.2018 06:00:00 (CET)Lorient Lan Bihoue, France (7205): Ensoleillement: 11.12.2018 06:00:00 - 17.12.2018 06:00:00 (CET)Lorient Lan Bihoue, France (7205): Quantités de précipitations: 11.12.2018 06:00:00 - 17.12.2018 06:00:00 (CET)
Date & Time tt [°C] td [°C] tt 5cm [°C] tt -20cm [°C] ff [km/h] ff [knt] fx [km/h] fx [knt] dd ppp [hPa] vv [km] sd [min] rr [mm]
17.12.2018 06:00:00 6,5 4,8 1,6 8,7 7 4 13 7 WSW 1019,7 12 0 0,0
17.12.2018 05:00:00 6,0 4,2 2,1 8,8 5 3 15 8 SW 1019,7 20 0 0,0
17.12.2018 04:00:00 7,0 5,5 2,6 8,8 9 5 15 8 W 1019,3 16 0 0,0
17.12.2018 03:00:00 6,1 4,7 2,1 8,9 8 5 11 6 W 1018,3 8 0 0,0
17.12.2018 02:00:00 6,9 5,0 2,6 8,9 6 3 14 7 W 1017,6 19 0 0,0
17.12.2018 01:00:00 7,7 5,2 5,0 8,9 8 4 27 14 W 1017,2 20 0 0,0
17.12.2018 00:00:00 8,0 5,3 3,9 9,0 12 7 22 12 WNW 1016,6 32 0 0,0
16.12.2018 23:00:00 7,7 4,8 4,5 9,0 14 7 24 13 W 1015,7 38 0 0,0
16.12.2018 22:00:00 7,7 4,8 4,8 9,1 12 7 26 14 WNW 1014,7 37 0 0,0
16.12.2018 21:00:00 7,0 4,5 4,7 9,1 12 6 25 13 W 1013,6 32 0 0,0
16.12.2018 20:00:00 8,5 5,4 5,5 9,1 19 10 33 18 WNW 1012,6 20 0 0,0
16.12.2018 19:00:00 7,4 5,9 4,0 9,2 12 6 19 10 W 1011,2 20 0 0,0
16.12.2018 18:00:00 6,8 4,8 5,0 9,2 9 5 19 11 W 1009,9 41 0 0,0
16.12.2018 17:00:00 7,6 5,2 6,6 9,1 20 11 53 29 WNW 1008,8 3,0 0 2,4
16.12.2018 16:00:00 9,1 7,4 8,1 9,1 22 12 44 24 WSW 1007,7 12 0 0,4
16.12.2018 15:00:00 9,4 7,2 8,3 9,1 34 18 53 29 SW 1007,1 8 0 1,7
16.12.2018 14:00:00 9,0 6,6 8,3 9,1 23 12 43 23 WSW 1007,5 13 0 1,2
16.12.2018 13:00:00 9,4 7,2 8,2 9,0 29 16 45 25 WSW 1008,2 6 0 1,8
16.12.2018 12:00:00 9,2 7,5 8,2 9,0 12 7 53 29 SW 1008,9 10 0 1,4
16.12.2018 11:00:00 11,7 9,1 9,0 9,0 22 12 32 18 S 1009,1 14 19 0,0
16.12.2018 10:00:00 10,0 7,1 8,4 9,1 19 11 32 18 SSW 1009,4 4,2 2 0,8
16.12.2018 09:00:00 9,4 7,2 6,9 9,1 12 6 17 9 SSW 1009,7 16 0 0,0
16.12.2018 08:00:00 10,0 7,1 7,5 9,1 13 7 23 12 SW 1009,8 18 0 0,0
16.12.2018 07:00:00 9,5 6,6 7,5 9,1 14 7 24 13 SW 1010,4 19 0 0,0
16.12.2018 06:00:00 9,3 6,7 8,1 9,2 14 8 23 12 WSW 1010,6 17 0 0,0
16.12.2018 05:00:00 10,0 7,4 7,9 9,1 15 8 22 12 WSW 1011,2 16 0 0,0
16.12.2018 04:00:00 9,5 6,8 8,0 9,2 14 8 25 14 W 1011,5 15 0 0,0
16.12.2018 03:00:00 9,9 7,1 8,6 9,1 17 9 30 16 W 1011,7 14 0 0,0
16.12.2018 02:00:00 10,2 7,4 9,1 9,2 20 11 35 19 W 1011,6 16 0 0,0
16.12.2018 01:00:00 10,2 7,8 8,7 9,2 18 10 31 17 W 1011,4 12 0 0,0
16.12.2018 00:00:00 10,1 7,7 8,9 9,2 18 10 35 19 W 1011,4 12 0 0,0
15.12.2018 23:00:00 10,3 7,9 8,7 9,2 19 10 30 16 W 1011,0 12 0 0,0
15.12.2018 22:00:00 10,2 7,6 8,7 9,2 18 10 29 16 W 1010,8 13 0 0,0
15.12.2018 21:00:00 10,2 7,4 8,8 9,1 19 10 32 17 W 1010,5 8 0 0,0
15.12.2018 20:00:00 10,4 7,6 8,9 9,0 18 10 31 17 W 1009,6 9 0 0,0
15.12.2018 19:00:00 11,0 8,0 9,8 9,0 23 12 48 26 W 1008,8 13 0 0,0
15.12.2018 18:00:00 12,1 11,0 11,6 8,8 29 16 60 33 W 1007,4 8 0 2,4
15.12.2018 17:00:00 13,2 12,7 13,0 8,6 34 19 53 29 SW 1006,6 3,9 0 0,8
15.12.2018 16:00:00 13,3 12,8 13,0 8,4 31 17 50 27 SW 1007,0 7 0 1,4
15.12.2018 15:00:00 13,3 12,8 13,1 8,4 31 17 54 29 SW 1007,4 4,3 0 0,4
15.12.2018 14:00:00 13,3 12,8 13,0 8,1 32 17 54 29 SW 1008,5 4,0 0 0,0
15.12.2018 13:00:00 13,3 13,0 13,0 8,1 27 15 44 24 SW 1009,7 5 0 0,0
15.12.2018 12:00:00 13,1 12,8 12,7 7,8 23 13 39 21 SW 1010,8 6 0 2,0
15.12.2018 11:00:00 12,8 12,5 9,4 7,8 18 10 35 19 SSW 1011,3 2,0 0 0,7
15.12.2018 10:00:00 10,4 10,1 8,7 7,7 11 6 21 12 SE 1011,9 0,4 0 0,2
15.12.2018 09:00:00 9,8 9,3 8,9 7,6 16 8 34 19 ESE 1012,1 1,8 0 2,0
15.12.2018 08:00:00 8,9 8,4 8,1 7,6 24 13 39 21 ESE 1012,4 1,6 0 10,1
15.12.2018 07:00:00 8,0 7,6 7,3 7,7 29 16 45 24 SE 1013,3 1,3 0 6,5
15.12.2018 06:00:00 7,4 7,0 6,6 7,7 28 15 47 25 SE 1014,1 1,3 0 3,0
15.12.2018 05:00:00 6,7 6,1 6,5 7,8 29 15 45 24 SE 1015,2 1,5 0 3,0
15.12.2018 04:00:00 6,5 5,9 6,2 7,7 27 14 50 27 SE 1016,1 1,5 0 2,5
15.12.2018 03:00:00 6,2 5,6 4,9 7,7 25 14 40 22 SE 1016,7 1,0 0 2,6
15.12.2018 02:00:00 5,0 4,3 4,7 7,8 21 11 34 18 ESE 1017,6 1,1 0 1,0
15.12.2018 01:00:00 4,8 3,9 4,3 7,8 21 11 28 15 ESE 1018,4 1,3 0 0,6
15.12.2018 00:00:00 4,3 3,0 3,5 7,8 16 8 28 15 ESE 1019,3 1,9 0 0,0
14.12.2018 23:00:00 3,7 2,1 3,3 7,7 18 10 27 14 E 1019,8 3,3 0 0,0
14.12.2018 22:00:00 3,9 1,1 3,5 7,8 16 9 22 12 E 1020,7 4,3 0 0,0
14.12.2018 21:00:00 4,2 0,9 4,0 7,6 17 9 23 12 ESE 1020,9 10 0 0,0
14.12.2018 20:00:00 4,2 0,7 3,9 7,8 14 8 21 12 ESE 1021,5 11 0 0,0
14.12.2018 19:00:00 4,0 0,3 3,5 7,9 13 7 22 12 ESE 1021,4 12 0 0,0
14.12.2018 18:00:00 3,7 0,0 3,4 7,9 14 8 23 12 ESE 1021,4 11 0 0,0
14.12.2018 17:00:00 3,4 -0,3 3,4 7,8 15 8 21 11 ESE 1021,5 10 0 0,0
14.12.2018 16:00:00 3,4 -0,3 3,7 7,9 17 9 23 12 ESE 1021,3 11 0 0,0
14.12.2018 15:00:00 3,2 -0,6 3,5 7,8 13 7 18 10 ESE 1021,1 11 0 0,0
14.12.2018 14:00:00 2,9 -1,1 3,7 7,8 13 7 19 10 ESE 1021,3 11 0 0,0
14.12.2018 13:00:00 2,7 -0,9 3,1 7,9 11 6 16 9 ESE 1021,3 8 0 0,0
14.12.2018 12:00:00 2,3 -1,0 3,1 7,9 10 5 22 12 ESE 1021,6 10 7 0,0
14.12.2018 11:00:00 1,5 -1,4 2,1 7,9 16 9 23 12 E 1021,4 9 2 0,0
14.12.2018 10:00:00 1,3 -1,3 1,1 8,0 11 6 24 13 E 1021,0 9 8 0,0
14.12.2018 09:00:00 1,3 -1,3 0,9 8,0 14 7 22 12 E 1019,8 8 0 0,0
14.12.2018 08:00:00 1,3 -1,1 1,3 8,1 14 8 21 11 E 1019,1 9 0 0,0
14.12.2018 07:00:00 1,4 -1,0 1,2 8,1 13 7 18 10 E 1018,9 10 0 0,0
14.12.2018 06:00:00 1,3 -0,8 0,4 8,2 7 4 20 11 E 1018,2 9 0 0,0
14.12.2018 05:00:00 1,6 -1,0 1,2 8,2 15 8 23 13 E 1017,6 10 0 0,0
14.12.2018 04:00:00 2,1 -0,7 2,0 8,2 14 7 20 11 E 1017,4 11 0 0,0
14.12.2018 03:00:00 2,5 -0,4 2,4 8,2 12 6 21 12 E 1016,9 11 0 0,0
14.12.2018 02:00:00 2,6 -0,3 2,5 8,3 14 7 23 12 E 1016,5 11 0 0,0
14.12.2018 01:00:00 2,6 -0,2 2,2 8,4 15 8 23 13 E 1016,1 9 0 0,0
14.12.2018 00:00:00 2,6 0,2 2,1 8,4 13 7 25 14 E 1015,8 7 0 0,0
13.12.2018 23:00:00 2,7 0,1 2,5 8,3 16 9 25 14 E 1015,3 10 0 0,0
13.12.2018 22:00:00 2,8 0,2 2,6 8,5 15 8 23 13 E 1014,5 10 0 0,0
13.12.2018 21:00:00 2,8 0,5 2,3 8,5 14 7 24 13 E 1013,6 9 0 0,0
13.12.2018 20:00:00 2,6 0,8 2,3 8,6 17 9 27 15 E 1012,6 6 0 0,0
13.12.2018 19:00:00 2,7 0,9 2,5 8,6 14 8 25 13 ENE 1012,2 6 0 0,0
13.12.2018 18:00:00 2,8 1,2 2,7 8,6 14 8 27 14 ENE 1011,3 7 0 0,0
13.12.2018 17:00:00 2,9 1,3 2,8 8,7 21 11 30 16 E 1010,1 8 0 0,0
13.12.2018 16:00:00 3,1 1,6 3,0 8,7 18 10 33 18 E 1009,2 6 0 0,4
13.12.2018 15:00:00 3,1 1,6 3,0 9,0 23 12 34 18 E 1008,4 4,4 0 0,2
13.12.2018 14:00:00 3,2 1,9 3,1 8,7 22 12 34 18 E 1007,9 7 0 0,2
13.12.2018 13:00:00 3,2 1,7 3,3 8,9 23 13 39 21 E 1007,6 7 0 0,0
13.12.2018 12:00:00 3,2 1,7 3,0 8,9 26 14 38 20 E 1007,8 8 - -
13.12.2018 11:00:00 3,0 3,0 2,8 9,0 21 11 37 20 E 1007,7 7 0 0,6
13.12.2018 10:00:00 2,9 2,9 2,9 8,9 23 12 35 19 E 1007,0 8 0 0,2
13.12.2018 09:00:00 3,4 3,3 3,1 9,2 24 13 36 19 E 1006,8 10 0 0,8
13.12.2018 08:00:00 3,6 3,2 3,2 9,1 25 13 35 19 E 1006,5 7 0 0,4
13.12.2018 07:00:00 3,7 3,3 3,5 9,0 23 12 36 19 E 1006,7 14 0 0,2
13.12.2018 06:00:00 4,0 3,6 3,7 9,2 23 12 42 23 ESE 1007,2 10 0 0,0
13.12.2018 05:00:00 4,1 4,0 4,1 9,3 29 15 42 23 ESE 1007,1 9 0 0,0
13.12.2018 04:00:00 4,1 4,1 4,2 9,3 27 14 41 22 ESE 1008,0 8 0 0,0
13.12.2018 03:00:00 4,3 4,3 4,3 9,4 27 15 42 23 ESE 1008,4 9 0 0,0
13.12.2018 02:00:00 4,5 4,5 4,5 9,4 21 12 32 18 ESE 1009,4 9 0 0,0
13.12.2018 01:00:00 4,7 4,7 4,7 9,4 18 10 34 19 ESE 1010,4 8 0 0,0
13.12.2018 00:00:00 4,7 4,7 4,5 9,4 22 12 31 17 ESE 1010,8 7 0 0,0
12.12.2018 23:00:00 4,5 4,5 4,5 9,5 23 13 35 19 E 1011,6 6 0 0,0
12.12.2018 22:00:00 4,5 4,5 4,6 9,5 23 12 34 18 E 1012,9 7 0 0,0
12.12.2018 21:00:00 5,1 - 5,2 9,6 16 9 28 15 E - 7 0 0,0
12.12.2018 20:00:00 5,2 - 5,3 9,6 19 10 31 17 ESE - 7 0 0,0
12.12.2018 19:00:00 5,6 - 5,7 9,7 16 9 31 17 ESE - 8 0 0,0
12.12.2018 18:00:00 6,0 - 6,0 9,4 17 9 27 15 ESE - 6 0 0,0
12.12.2018 17:00:00 6,1 - 6,2 9,6 17 9 24 13 ESE - 7 0 0,0
12.12.2018 16:00:00 6,4 - 6,8 9,7 13 7 19 11 ESE - 5 0 0,0
12.12.2018 15:00:00 6,2 - 6,7 9,5 17 9 23 13 E - 3,4 0 0,0
12.12.2018 14:00:00 6,1 - 6,6 9,5 11 6 15 8 ESE - 4,5 0 0,0
12.12.2018 13:00:00 6,1 - 6,2 9,5 11 6 16 8 E - 1,3 0 0,0
12.12.2018 12:00:00 5,6 - 6,1 9,6 4 2 16 9 SE - 2,2 0 0,0
12.12.2018 11:00:00 5,5 - 5,8 9,6 15 8 24 13 E - 1,8 0 0,0
12.12.2018 10:00:00 5,4 - 5,3 9,5 12 7 17 9 E - 0,5 0 0,0
12.12.2018 09:00:00 5,0 - 5,2 9,6 10 6 15 8 E - 0,4 0 0,0
12.12.2018 08:00:00 5,0 - 5,1 9,7 11 6 16 8 E - 0,6 0 0,0
12.12.2018 07:00:00 5,0 5,0 5,1 9,7 11 6 16 9 E 1019,5 2,0 0 0,0
12.12.2018 06:00:00 5,3 5,3 5,4 9,7 10 5 20 11 ENE 1019,8 2,6 0 0,0
12.12.2018 05:00:00 5,4 5,4 5,4 9,7 15 8 23 13 ESE 1019,6 3,4 0 0,0
12.12.2018 04:00:00 5,7 5,6 5,6 9,7 18 10 31 17 ESE 1019,4 5 0 0,0
12.12.2018 03:00:00 7,7 6,9 7,2 9,9 23 12 33 18 SE 1018,7 17 0 6,3
12.12.2018 02:00:00 8,4 8,3 8,1 9,7 19 11 32 18 SE 1019,4 2,0 0 3,4
12.12.2018 01:00:00 9,6 8,8 8,9 9,7 18 10 35 19 SSE 1019,4 8 0 0,2
12.12.2018 00:00:00 9,6 8,5 8,8 9,6 22 12 35 19 SSE 1019,4 19 0 0,2
11.12.2018 23:00:00 9,8 8,2 9,1 9,6 21 11 33 18 SSE 1019,7 19 0 0,0
11.12.2018 22:00:00 10,3 7,5 9,7 9,6 17 9 29 16 S 1020,4 42 0 0,0
11.12.2018 21:00:00 10,1 7,7 9,0 9,6 18 10 29 16 S 1020,8 33 0 0,0
11.12.2018 20:00:00 9,8 7,2 9,2 9,6 20 11 31 17 SSE 1020,7 33 0 0,0
11.12.2018 19:00:00 9,8 7,6 9,1 9,5 16 8 27 15 S 1021,1 20 0 0,0
11.12.2018 18:00:00 9,5 7,3 8,4 9,5 16 8 27 15 SSE 1021,4 20 0 0,0
11.12.2018 17:00:00 9,5 7,1 8,8 9,4 16 9 28 15 SSE 1021,5 31 0 0,0
11.12.2018 16:00:00 10,1 7,2 10,0 9,4 16 8 28 15 SSE 1022,1 20 3 0,0
11.12.2018 15:00:00 10,3 7,7 10,6 9,2 16 9 27 15 SSE 1022,6 20 2 0,0
11.12.2018 14:00:00 10,2 9,0 10,7 9,2 18 10 32 18 SSE 1022,9 20 10 0,0
11.12.2018 13:00:00 9,7 - 8,7 9,1 16 8 28 15 SSE - 19 9 0,0
11.12.2018 12:00:00 7,6 - 7,9 9,3 10 5 18 10 E - 12 26 0,0
11.12.2018 11:00:00 6,5 - 5,4 9,4 11 6 16 9 ESE - 11 60 0,0
11.12.2018 10:00:00 4,9 - 1,5 9,4 13 7 16 9 ESE - 6 42 0,0
11.12.2018 09:00:00 3,1 - 0,7 9,5 12 7 15 8 E - 7 0 0,0
11.12.2018 08:00:00 2,1 - -0,2 9,6 12 6 14 7 E - 7 0 0,0
11.12.2018 07:00:00 2,5 - -0,5 9,6 10 6 13 7 ENE - 3,3 0 0,0
11.12.2018 06:00:00 2,6 - -0,5 9,8 9 5 11 6 E - 1,1 0 0,0

tt = Température de l'air
td = dewpoint
tt 5cm = Température de l'air 5cm
tt -20cm = Température de l'air -20cm
ff = Vitesse du vent
fx = gusts
dd = Direction du vent
ppp = reduced air pressure
vv = visibility
sd = Ensoleillement
rr = Quantités de précipitations

stations d'obs. à proximité